CZ-3A DEB, 35552

Orbit data source: Space-Track

CZ-3A DEB, 35552 is space debris in HEO originally from a launch on Fri, 02 Feb 2007 UTC launched from the Xichang Space Center, China (XSC). Debris objects in space refer to the collection of defunct objects orbiting the Earth. Examples of debris include non-operational satellites, rocket bodies, and fragments generated from explosions, collisions, or faulty payload assembly.

Loading next visibility...
Identifier
35552, 2007-003L
Orbit
HEO
Country
Flag of CNCN / PRC
Related business
Manufacturer
Unknown
Mission
Spacecraft
Bus & Motor
Unknown
Mass
Unknown
Launch date (UTC)
2007-02-02 (19 years ago)
Launch vehicle
Unknown
Launch site
Xichang Space Center, China (XSC)
Object type
Payload
Rocket body
Debris
Shape & HBR
Unknown shape, 0.3 m
Radar Cross Section
Medium (>0.1 m² and <1 m²)

Expand to show TLE details & history
Last TLE update: 19 hours ago

TLE from 19 hours ago
0 CZ-3A DEB
1 35552U 07003L   26035.56360585  .00000015  00000-0  39490-2 0  9997
2 35552  25.8026  98.1350 7398950  58.1538 353.1362  2.02614385127848
Epoch: 2026-02-04T13:31Z
TLE epoch observation values (Epoch: 2026-02-04T13:31:35.545Z)
Latitude
0.00008°
Longitude
120.67469°
Altitude
2,158.89 km
Speed
8.847 km/s
True Right ascension
06h 33m 12s
True Declination
0° 00' 00"
Sunlit
Object was in full shadow at epoch
Visualization orbit readout
Latitude
Unknown
Longitude
Unknown
Altitude
Unknown
Speed
Unknown
Apparent Right ascension
Unknown
Apparent Declination
Unknown
Sunlit
N/A
Visualization observer readout
Local Sidereal Time
10:08:15
Azimuth
Unknown
Elevation
Unknown
Doppler factor
Unknown
Orbital elements
Apogee altitude
39,528.582 km
Perigee altitude
484.672 km
Semi-major axis
26,384.764 km
Eccentricity
0.7399
Inclination
25.8026°
RAAN
98.135°
Arg. of periapsis
58.1538°
True anomaly
301.72205°
Mean anomaly
353.1362°
Eccentric anomaly
335.67215°
Mean motion
0.50642 °/min
Orbital period
710.87 mins
BSTAR
0.003949
Loading maneuver chart data...
Computing Atmospheric mass density...
Loading historical data...
Loading historical data...
Loading historical data...
Loading historical data...
Loading historical data...
Loading historical data...
Loading historical data...

Documentation

Showing up to 5 results
|